BREEZE-M DEB, 41318

Orbit data source: Space-Track

BREEZE-M DEB, 41318 is space debris in HEO originally from a launch on Thu, 17 May 2012 UTC launched from the Tyuratam Missile And Space Complex (TTMTR). Debris objects in space refer to the collection of defunct objects orbiting the Earth. Examples of debris include non-operational satellites, rocket bodies, and fragments generated from explosions, collisions, or faulty payload assembly.

Loading next visibility...
Identifier
41318, 2012-026E
Orbit
HEO
Country
Flag of CISCIS
Related business
Manufacturer
Khrunichev
Mission
Spacecraft
Bus & Motor
Unknown
Mass
Unknown
Launch date (UTC)
2012-05-17 (13 years ago)
Launch vehicle
Unknown
Launch site
Tyuratam Missile And Space Complex (TTMTR)
Object type
Payload
Rocket body
Debris
Shape & HBR
Unknown shape, 1.1 m
Radar Cross Section
RCS unknown

Expand to show TLE details & history
Last TLE update: 1 week ago

TLE from 1 week ago
0 BREEZE-M DEB
1 41318U 12026E   25299.89386822 -.00000055  00000-0  00000+0 0  9991
2 41318  10.0199 159.8283 4089570   3.8424 358.7071  1.76519499 63077
Epoch: 2025-10-26T21:27Z
TLE epoch observation values (Epoch: 2025-10-26T21:27:10.214Z)
Latitude
-0.00002°
Longitude
162.60421°
Altitude
10,732.659 km
Speed
5.728 km/s
True Right ascension
10h 39m 36s
True Declination
0° 00' 00"
Sunlit
Object was in daylight at epoch
Visualization orbit readout
Latitude
Unknown
Longitude
Unknown
Altitude
Unknown
Speed
Unknown
Apparent Right ascension
Unknown
Apparent Declination
Unknown
Sunlit
N/A
Visualization observer readout
Local Sidereal Time
12:34:51
Azimuth
Unknown
Elevation
Unknown
Doppler factor
Unknown
Orbital elements
Apogee altitude
34,372.411 km
Perigee altitude
10,716.299 km
Semi-major axis
28,922.492 km
Eccentricity
0.40896
Inclination
10.0199°
RAAN
159.8283°
Arg. of periapsis
3.8424°
True anomaly
356.62371°
Mean anomaly
358.7071°
Eccentric anomaly
357.81288°
Mean motion
0.44125 °/min
Orbital period
815.85 mins
BSTAR
0
Loading maneuver chart data...
Computing Atmospheric mass density...
Loading historical data...
Loading historical data...
Loading historical data...
Loading historical data...
Loading historical data...
Loading historical data...
Loading historical data...

Documentation

Showing up to 5 results
|